Honaunau, HI (96726)

5:31 PM HST on December 03, 2016 (GMT -1000)
| | Change Station
Active Advisory: Flash Flood Watch

Elev -9999 ft 0.00 °N, 0.00 °E | Updated

Partly Cloudy
Partly Cloudy
76 °F
Feels Like 76 °F
N
5
Wind Variable Wind from SE
Gusts mph

Today
High -- | Low -- °F
--% Chance of Precip.
Yesterday
High -- | Low -- °F
Precip. -- in
Pressure 29.82 in
Visibility 10.0 miles
Clouds Few 6000 ft
Dew Point 65 °F
Humidity 71%
Rainfall --
Snow Depth Not available.
6:42 AM 5:44 PM
Waxing Crescent, 19% visible
METAR PHKO 040253Z COR 23009KT 10SM FEW060 26/22 A2981 RMK AO2 SLP096 T02610222 53004
Pressure 29.82 in
Visibility 10.0 miles
Clouds Few 6000 ft
Dew Point 65 °F
Humidity 71%
Rainfall --
Snow Depth Not available.
6:42 AM 5:44 PM
Waxing Crescent, 19% visible
METAR PHKO 040253Z COR 23009KT 10SM FEW060 26/22 A2981 RMK AO2 SLP096 T02610222 53004

10-Day Weather Forecast

Almanac

Astronomy

Dec. 03, 2016 Rise Set
Actual Time
Civil Twilight
Nautical Twilight
Astronomical Twilight
Moon
Length of Visible Light
Length of Day
Tomorrow will be .
, % of the Moon is Illuminated

Today's Extremes

State Highs State Lows

Community

WunderPhotos

Upload Photos

1,955,573 photos uploaded!

WunderBlog® & News

Nearby

Air Quality

  Air Quality AQ Index Pollutant
Not available.

Snow Depth

Station Depth Elevation

Earthquake Activity

City Distance Mag. Time & Date
Minimum magnitude displayed is 2.5.

Coastal Water Temperatures

Place Temperature

Stations

Nearby Weather Stations

Station Location Temp. Windchill Dew Point Humidity Wind Precip. Elev Updated Type
                   

Watches & Warnings

Flash Flood Watch
Issued: 3:35 PM HST Dec. 3, 2016 – National Weather Service

... Flash Flood Watch remains in effect through Sunday afternoon...

The Flash Flood Watch continues for

* all Hawaiian islands.

* Through Sunday afternoon

* the combination of deep tropical moisture and an unstable
airmass will allow for the potential for heavy showers and
thunderstorms across the state.

* Heavier downpours and thunderstorms could cause streams to
quickly overflow their banks... leading to flash flooding.

Precautionary/preparedness actions...

A Flash Flood Watch means that conditions may develop that lead
to flash flooding. Flash flooding is very dangerous.

You should monitor later forecasts and be prepared to take action
should flash flood warnings be issued. Campers and hikers should
consider postponing their Outing until the weather is better.
High streams... as well as streams overflowing their banks... could
make conditions very dangerous.



Burke